Regional Weather Roundup
Issued by NWS Albany, NY

Home | Current Version | Previous Version | Text Only | Print | Product List | Glossary On
Versions: 1 2 3 4 5 6 7 8 9 10 11 12 13 14 15 16 17 18 19 20 21 22 23 24 25 26 27 28 29 30 31 32 33 34 35 36 37 38 39 40 41 42 43 44 45 46 47 48 49 50
000
ASUS41 KALY 212010
RWRALY

NEW YORK STATE HOURLY WEATHER ROUNDUP
NATIONAL WEATHER SERVICE ALBANY NY
400 PM EDT SUN SEP 21 2014

NOTE: "FAIR" INDICATES FEW OR NO CLOUDS BELOW 12,000 FEET WITH NO
SIGNIFICANT WEATHER AND/OR NO OBSTRUCTIONS TO VISIBILITY.

NYZ032-033-038>043-046>054-057>066-NYZ062>081-212100-
EAST


CITY           SKY/WX    TMP DP  RH WIND       PRES   REMARKS
ALBANY         PTSUNNY   79  64  60 S13G25    29.63F
GLENS FALLS    MOSUNNY   81  57  43 S10       29.62F
POUGHKEEPSIE   PTSUNNY   77  66  68 SE7       29.66F
NEWBURGH       PTSUNNY   77  68  73 SE9       29.68F
MONTGOMERY     PTSUNNY   79  66  64 S7        29.66F
WHITE PLAINS   CLOUDY    73  68  84 CALM      29.69F
ISLIP          CLOUDY    75  68  78 S7        29.67F
NEW YORK CITY  CLOUDY    74  67  78 NE3       29.68F
CENTRAL PARK   CLOUDY    74  67  78 CALM      29.71F
$$

NYZ005>009-017-018-044>046-055-056-212100-
CENTRAL


CITY           SKY/WX    TMP DP  RH WIND       PRES   REMARKS
FULTON         CLOUDY    70  64  81 W9G20     29.55F
SYRACUSE       MOSUNNY   75  67  76 S10       29.56F
ROME           CLOUDY    71  66  84 CALM      29.58F
ELMIRA         PTSUNNY   76  65  68 SW14G24   29.60F
BINGHAMTON     PTSUNNY   73  60  63 S7        29.65F
MONTICELLO     MOSUNNY   77  57  50 S12       29.71F
$$

NYZ026>034-041>043-212100-
NORTH


CITY           SKY/WX    TMP DP  RH WIND       PRES   REMARKS
WATERTOWN      PTSUNNY   75  63  66 S10G18    29.52F
FORT DRUM      NOT AVBL
MASSENA        PTSUNNY   75  65  70 S17G23    29.53F
SARANAC LAKE   CLOUDY    71  57  61 S10       29.60F
PLATTSBURGH    PTSUNNY   76  61  59 S9        29.57F
$$

NYZ001>004-010>016-019>021-212100-
WEST


CITY           SKY/WX    TMP DP  RH WIND       PRES   REMARKS
NIAGARA FALLS  MOSUNNY   74  58  57 SW21G32   29.57R
BUFFALO        MOSUNNY   70  55  59 SW26G33   29.60R
DUNKIRK        MOSUNNY   68  58  70 W20G36    29.63S
JAMESTOWN      PTSUNNY   64  55  72 W18G25    29.67R
WELLSVILLE     CLOUDY    66  58  75 W14       29.68R
ROCHESTER      MOSUNNY   76  59  55 W20G29    29.57F
PENN YAN       LGT RAIN  64  55  72 W9G23     29.61R
$$

             KEY
       WCI = WIND CHILL INDEX
       VSB = VISIBILITY
       HX  = HEAT INDEX
$$



USA.gov is the U.S. government's official web portal to all federal, state and local government web resources and services.